map of ACA home
Great Circle Mapper logo
ACA - Airport
Location
City:  Acapulco, Guerrero, México
Name:General Juan N. Álvarez International Airport
ICAO / IATA:MMAA / ACA

Details
Type:Airport (Aerodrome, Airfield)
Use:Public/Civil, International (customs port of entry)
Latitude:16°45'25"N (16.757061)
Longitude:99°45'14"W (-99.753952)
Datum:WGS 1984
Elevation:16 ft (5 m)
Runways:2
Longest:10832 × 148 ft (3302 × 45 m), paved

Time
Time Zone:UTC-6 (DST-5)
Local Time:

Weather
METAR:MMAA 292145Z 25007KT 8SM SCT300 32/27 A2981 RMK 8/002 TCU E
TAF:MMAA 291721Z 2918/3024 00000KT P6SM SCT015 BKN120 TX33/2919Z TN26/3012Z
FM292000 24012KT P6SM SCT020CB BKN250
TEMPO 2922/3002 5SM TSRA
FM300300 00000KT 5SM TSRA BKN020CB
FM300600 00000KT P6SM BKN100 BKN250
FM301200 00000KT P6SM BKN250

Related Locations
Nearby:
Farthest:NKW: 11600 mi / 18668 km
Diego Garcia, Chagos Archipelago, IO

Find:

   beyond  
but within

Other Information
Maps:
NOTAMs:
Links:
Sources:

  
flag of México   

Sectional Chart

Flight Planning
at skyvector.com

Satellite Image

Google Maps Satellite View

 

Copyright © 2004-2014 Karl L. Swartz. All rights reserved.
The Great Circle Mapper name and logo are trademarks of the Great Circle Mapper.
All other trademarks mentioned herein belong to their respective owners.
Please see credits for attibutions and further copyright information.

  Follow gcmap on Facebook Follow gcmap on Twitter

hCard Microformat

Geo Microformat